Weather History for Lufkin, TX

Change the Weather History Date:

Wednesday, November 24, 2010

  Actual Average Record
Temperature  
Mean Temperature 77 °F 55 °F  
Max Temperature 83 °F 67 °F 85 °F (1945)
Min Temperature 71 °F 44 °F 22 °F (1970)
Degree Days  
Heating Degree Days 0 10  
Month to date heating degree days 169 172  
Since 1 July heating degree days 198 238  
Cooling Degree Days 12 1  
Month to date cooling degree days 64 34  
Year to date cooling degree days 3194 2578  
Growing Degree Days 26 (Base 50)    
Moisture  
Dew Point 66 °F    
Average Humidity 71    
Maximum Humidity 90    
Minimum Humidity 51    
Precipitation  
Precipitation T in 0.15 in 5.28 in (1940)
Month to date precipitation 2.39 4.02  
Year to date precipitation 28.40 43.52  
Snow  
Snow 0.00 in - - ()
Month to date snowfall 0.0  
Since 1 July snowfall 0.0  
Since 1 September snowfall 0.0  
Snow Depth 0.00 in    
Sea Level Pressure  
Sea Level Pressure 29.88 in    
Wind  
Wind Speed 11 mph (SSE)    
Max Wind Speed 22 mph    
Max Gust Speed 30 mph    
Visibility 10 miles    
Events      
T = Trace of Precipitation, MM = Missing Value Source: NWS Daily Summary

Daily Weather History Graph

Daily Weather History Graph

Search for Another Location

Airport:

Trip Planner

Search our weather history database for the weather conditions in past years. The results will help you decide how hot, cold, wet, or windy it might be!

Date:

Astronomy

Nov. 24, 2010 Rise Set
Actual Time 6:54 AM CST 5:17 PM CST
Civil Twilight 6:27 AM CST 5:43 PM CST
Nautical Twilight 5:58 AM CST 6:12 PM CST
Astronomical Twilight 5:29 AM CST 6:42 PM CST
Moon 8:08 PM CST (11/24) 9:38 AM CST (11/24)
Length of Visible Light 11h 15m
Length of Day
10h 23m
Waning Gibbous, 90% of the Moon is Illuminated
Nov 24
Waning Gibbous
Nov 28
Last Quarter
Dec 5
New
Dec 13
First Quarter
Dec 21
Full

Hourly Weather History & Observations

Time (CST) Temp. Heat Index Dew Point Humidity Pressure Visibility Wind Dir Wind Speed Gust Speed Precip Events Conditions
12:53 AM 72.0 °F - 68.0 °F 87% 29.96 in 10.0 mi South 5.8 mph - N/A   Overcast
1:53 AM 72.0 °F - 68.0 °F 87% 29.95 in 10.0 mi South 8.1 mph - N/A   Mostly Cloudy
2:53 AM 72.0 °F - 68.0 °F 87% 29.94 in 10.0 mi South 6.9 mph - N/A   Mostly Cloudy
3:53 AM 72.0 °F - 68.0 °F 87% 29.93 in 10.0 mi SSE 8.1 mph - N/A   Mostly Cloudy
4:53 AM 72.0 °F - 68.0 °F 87% 29.92 in 10.0 mi SSE 5.8 mph - N/A   Overcast
5:53 AM 72.0 °F - 68.0 °F 87% 29.92 in 10.0 mi SSE 6.9 mph - N/A   Mostly Cloudy
6:53 AM 72.0 °F - 68.0 °F 87% 29.92 in 10.0 mi SSE 6.9 mph - N/A   Scattered Clouds
7:13 AM 71.6 °F - 68.0 °F 88% 29.93 in 10.0 mi SSE 8.1 mph - N/A   Mostly Cloudy
7:53 AM 73.0 °F - 68.0 °F 84% 29.93 in 10.0 mi SSE 10.4 mph - N/A   Mostly Cloudy
8:53 AM 73.9 °F - 66.9 °F 79% 29.94 in 10.0 mi South 11.5 mph 18.4 mph N/A   Mostly Cloudy
9:02 AM 73.4 °F - 66.2 °F 78% 29.95 in 10.0 mi South 8.1 mph 18.4 mph N/A   Mostly Cloudy
9:49 AM 75.2 °F - 66.2 °F 73% 29.95 in 10.0 mi South 12.7 mph 24.2 mph N/A   Overcast
9:53 AM 77.0 °F - 66.0 °F 69% 29.94 in 10.0 mi South 13.8 mph 20.7 mph N/A   Overcast
10:11 AM 78.8 °F - 66.2 °F 65% 29.95 in 10.0 mi South 18.4 mph 26.5 mph N/A   Overcast
10:39 AM 78.8 °F - 64.4 °F 61% 29.95 in 10.0 mi South 19.6 mph 27.6 mph N/A   Overcast
10:53 AM 78.1 °F - 64.0 °F 62% 29.93 in 10.0 mi South 16.1 mph 27.6 mph N/A   Mostly Cloudy
11:53 AM 80.1 °F 81.7 °F 64.0 °F 58% 29.90 in 10.0 mi South 15.0 mph 21.9 mph N/A   Mostly Cloudy
12:53 PM 81.0 °F 82.2 °F 63.0 °F 54% 29.86 in 10.0 mi South 18.4 mph 25.3 mph N/A   Mostly Cloudy
1:53 PM 82.9 °F 83.7 °F 62.1 °F 49% 29.82 in 10.0 mi South 13.8 mph 28.8 mph N/A   Mostly Cloudy
2:53 PM 81.0 °F 81.9 °F 62.1 °F 52% 29.79 in 10.0 mi SSE 15.0 mph 24.2 mph N/A   Scattered Clouds
3:53 PM 80.1 °F 81.5 °F 63.0 °F 56% 29.77 in 10.0 mi South 12.7 mph 25.3 mph N/A   Scattered Clouds
4:53 PM 77.0 °F - 63.0 °F 62% 29.77 in 10.0 mi SSE 12.7 mph 18.4 mph N/A   Mostly Cloudy
5:53 PM 75.9 °F - 64.0 °F 67% 29.77 in 10.0 mi South 9.2 mph 20.7 mph N/A   Mostly Cloudy
6:53 PM 75.0 °F - 64.9 °F 71% 29.79 in 10.0 mi SSE 8.1 mph - N/A   Overcast
7:53 PM 75.0 °F - 64.9 °F 71% 29.80 in 10.0 mi South 9.2 mph - N/A   Overcast
8:53 PM 73.0 °F - 66.9 °F 81% 29.81 in 10.0 mi South 11.5 mph - 0.00 in   Mostly Cloudy
9:53 PM 73.0 °F - 68.0 °F 84% 29.81 in 10.0 mi SSE 10.4 mph - N/A   Overcast
10:53 PM 72.0 °F - 68.0 °F 87% 29.81 in 10.0 mi SSE 11.5 mph - N/A   Overcast
11:23 PM 71.6 °F - 68.0 °F 88% 29.81 in 10.0 mi SSE 9.2 mph - N/A   Overcast
11:53 PM 72.0 °F - 68.0 °F 87% 29.80 in 10.0 mi SSE 8.1 mph - N/A   Overcast